Weather History for KPVC - January, 2014

Change the Weather History Date:

Thursday, January 23, 2014

  Actual Average Record
Temperature  
Mean Temperature 18 °F -  
Max Temperature 21 °F 32 °F 50 °F (1957)
Min Temperature 14 °F 23 °F 10 °F (2003)
Degree Days  
Heating Degree Days 48    
Moisture  
Dew Point 5 °F    
Average Humidity 60    
Maximum Humidity 86    
Minimum Humidity 39    
Precipitation  
Precipitation 0.11 in - - ()
Sea Level Pressure  
Sea Level Pressure 30.01 in    
Wind  
Wind Speed 13 mph (WNW)    
Max Wind Speed 26 mph    
Max Gust Speed 38 mph    
Visibility 10 miles    
Events      
Averages and records for this station are not official NWS values.
T = Trace of Precipitation, MM = Missing Value Source: NWS Daily Summary

Daily Weather History Graph

Daily Weather History Graph

Search for Another Location

Airport or City:

Trip Planner

Search our weather history database for the weather conditions in past years. The results will help you decide how hot, cold, wet, or windy it might be!

Date:

Astronomy

Jan. 23, 2014 Rise Set
Actual Time 7:01 AM EST 4:44 PM EST
Civil Twilight 6:31 AM EST 5:14 PM EST
Nautical Twilight 5:57 AM EST 5:48 PM EST
Astronomical Twilight 5:24 AM EST 6:21 PM EST
Moon No Moon Rise 10:27 AM EST (1/23)
Length of Visible Light 10h 42m
Length of Day
9h 42m
Waning Gibbous, 55% of the Moon is Illuminated
Jan 23
Waning Gibbous
Jan 24
Last Quarter
Jan 30
New
Feb 6
First Quarter
Feb 14
Full

Hourly Weather History & Observations

Time (EST) Temp. Windchill Dew Point Humidity Pressure Visibility Wind Dir Wind Speed Gust Speed Precip Events Conditions
12:15 AM 15.8 °F 2.7 °F 6.8 °F 68% 29.86 in 10.0 mi NW 11.5 mph - N/A   Overcast
12:35 AM 15.8 °F 3.4 °F 6.8 °F 68% 29.87 in 10.0 mi NNW 10.4 mph 18.4 mph N/A   Mostly Cloudy
12:55 AM 15.8 °F 2.1 °F 8.6 °F 73% 29.87 in 10.0 mi NNW 12.7 mph - N/A   Overcast
1:15 AM 15.8 °F 0.9 °F 8.6 °F 73% 29.87 in 10.0 mi NNW 15.0 mph 18.4 mph N/A   Mostly Cloudy
1:35 AM 15.8 °F 2.1 °F 6.8 °F 68% 29.88 in 10.0 mi NNW 12.7 mph 17.3 mph N/A   Mostly Cloudy
1:55 AM 15.8 °F 3.4 °F 8.6 °F 73% 29.88 in 10.0 mi NW 10.4 mph - N/A   Overcast
2:15 AM 15.8 °F 2.1 °F 8.6 °F 73% 29.89 in 10.0 mi NNW 12.7 mph 18.4 mph N/A   Overcast
2:35 AM 15.8 °F 2.7 °F 6.8 °F 68% 29.90 in 10.0 mi NNW 11.5 mph - N/A   Overcast
2:55 AM 15.8 °F 0.9 °F 8.6 °F 73% 29.91 in 10.0 mi NNW 15.0 mph - N/A   Overcast
3:15 AM 15.8 °F 2.7 °F 8.6 °F 73% 29.91 in 10.0 mi NNW 11.5 mph 16.1 mph N/A   Overcast
3:35 AM 15.8 °F 2.1 °F 8.6 °F 73% 29.92 in 10.0 mi NNW 12.7 mph 17.3 mph N/A   Overcast
3:55 AM 14.0 °F 1.2 °F 8.6 °F 79% 29.93 in 10.0 mi NW 10.4 mph - N/A   Overcast
4:15 AM 14.0 °F 0.5 °F 6.8 °F 73% 29.93 in 10.0 mi NNW 11.5 mph 16.1 mph N/A   Overcast
4:35 AM 14.0 °F 2.0 °F 6.8 °F 73% 29.94 in 10.0 mi NW 9.2 mph - N/A   Overcast
4:55 AM 15.8 °F 5.1 °F 8.6 °F 73% 29.94 in 10.0 mi NW 8.1 mph - N/A   Overcast
5:15 AM 15.8 °F 5.1 °F 8.6 °F 73% 29.94 in 10.0 mi NNW 8.1 mph - N/A   Overcast
5:35 AM 15.8 °F 4.2 °F 8.6 °F 73% 29.95 in 10.0 mi NW 9.2 mph 16.1 mph N/A   Overcast
5:55 AM 15.8 °F 5.1 °F 8.6 °F 73% 29.95 in 10.0 mi NNW 8.1 mph - N/A   Overcast
6:15 AM 15.8 °F 2.7 °F 8.6 °F 73% 29.96 in 10.0 mi NW 11.5 mph - N/A   Overcast
6:35 AM 14.0 °F -0.2 °F 6.8 °F 73% 29.97 in 10.0 mi WNW 12.7 mph 16.1 mph N/A   Overcast
6:55 AM 14.0 °F -0.2 °F 10.4 °F 86% 29.98 in 10.0 mi WNW 12.7 mph 17.3 mph N/A   Overcast
7:15 AM 14.0 °F 1.2 °F 6.8 °F 73% 29.98 in 10.0 mi WNW 10.4 mph 18.4 mph N/A   Overcast
7:35 AM 14.0 °F -0.2 °F 6.8 °F 73% 29.98 in 10.0 mi WNW 12.7 mph - N/A   Mostly Cloudy
7:55 AM 14.0 °F 0.5 °F 6.8 °F 73% 29.98 in 10.0 mi WNW 11.5 mph 19.6 mph N/A   Scattered Clouds
8:15 AM 14.0 °F -0.8 °F 6.8 °F 73% 29.99 in 10.0 mi West 13.8 mph - N/A   Mostly Cloudy
8:35 AM 14.0 °F -0.2 °F 8.6 °F 79% 30.01 in 10.0 mi West 12.7 mph 18.4 mph N/A   Mostly Cloudy
8:55 AM 15.8 °F 2.7 °F 6.8 °F 68% 30.01 in 10.0 mi West 11.5 mph 18.4 mph N/A   Mostly Cloudy
9:15 AM 15.8 °F 3.4 °F 8.6 °F 73% 30.01 in 10.0 mi West 10.4 mph - 0.01 in   Partly Cloudy
9:35 AM 14.0 °F 0.5 °F 6.8 °F 73% 30.01 in 10.0 mi West 11.5 mph - 0.01 in   Partly Cloudy
9:55 AM 15.8 °F 4.2 °F 8.6 °F 73% 30.02 in 10.0 mi West 9.2 mph 17.3 mph 0.01 in   Mostly Cloudy
10:15 AM 15.8 °F 2.7 °F 6.8 °F 68% 30.02 in 10.0 mi WNW 11.5 mph 17.3 mph N/A   Scattered Clouds
10:35 AM 15.8 °F 2.7 °F 6.8 °F 68% 30.02 in 10.0 mi West 11.5 mph - N/A   Scattered Clouds
10:55 AM 15.8 °F 2.1 °F 6.8 °F 68% 30.02 in 10.0 mi West 12.7 mph 18.4 mph N/A   Mostly Cloudy
11:15 AM 15.8 °F 0.9 °F 5.0 °F 62% 30.01 in 10.0 mi WNW 15.0 mph - N/A   Clear
11:35 AM 15.8 °F 2.1 °F 5.0 °F 62% 30.01 in 10.0 mi West 12.7 mph 18.4 mph N/A   Partly Cloudy
11:55 AM 15.8 °F 3.4 °F 5.0 °F 62% 30.00 in 10.0 mi West 10.4 mph - N/A   Scattered Clouds
12:15 PM 17.6 °F 4.3 °F 6.8 °F 63% 29.99 in 10.0 mi West 12.7 mph 16.1 mph N/A   Partly Cloudy
12:35 PM 17.6 °F 5.7 °F 6.8 °F 63% 29.99 in 10.0 mi West 10.4 mph - N/A   Mostly Cloudy
12:55 PM 19.4 °F 7.2 °F 3.2 °F 49% 29.99 in 10.0 mi West 11.5 mph 16.1 mph 0.01 in   Overcast
1:15 PM 19.4 °F 7.9 °F 6.8 °F 58% 29.99 in 10.0 mi West 10.4 mph 16.1 mph N/A   Scattered Clouds
1:35 PM 19.4 °F 6.6 °F 6.8 °F 58% 29.99 in 10.0 mi WSW 12.7 mph - N/A   Clear
1:55 PM 21.2 °F 8.9 °F 5.0 °F 50% 29.99 in 10.0 mi WSW 12.7 mph - N/A   Clear
2:15 PM 21.2 °F 7.3 °F 1.4 °F 42% 29.99 in 10.0 mi West 16.1 mph 21.9 mph N/A   Clear
2:35 PM 21.2 °F 8.9 °F 3.2 °F 46% 29.99 in 10.0 mi West 12.7 mph 18.4 mph N/A   Clear
2:55 PM 21.2 °F 8.9 °F 1.4 °F 42% 29.99 in 10.0 mi West 12.7 mph 17.3 mph N/A   Clear
3:15 PM 21.2 °F 7.8 °F -0.4 °F 39% 30.00 in 10.0 mi West 15.0 mph 19.6 mph N/A   Clear
3:35 PM 21.2 °F 8.9 °F 1.4 °F 42% 30.00 in 10.0 mi West 12.7 mph 19.6 mph N/A   Clear
3:55 PM 21.2 °F 7.8 °F 1.4 °F 42% 30.00 in 10.0 mi West 15.0 mph 20.7 mph 0.01 in   Clear
4:15 PM 21.2 °F 7.8 °F -0.4 °F 39% 30.01 in 10.0 mi WSW 15.0 mph - 0.01 in   Clear
4:35 PM 21.2 °F 8.3 °F -0.4 °F 39% 30.02 in 10.0 mi West 13.8 mph 17.3 mph 0.01 in   Clear
4:55 PM 21.2 °F 8.9 °F -0.4 °F 39% 30.03 in 10.0 mi West 12.7 mph 20.7 mph 0.01 in   Clear
5:15 PM 21.2 °F 7.3 °F -0.4 °F 39% 30.04 in 10.0 mi West 16.1 mph - N/A   Clear
5:35 PM 21.2 °F 6.4 °F 1.4 °F 42% 30.05 in 10.0 mi West 18.4 mph 26.5 mph N/A   Clear
5:55 PM 19.4 °F 3.2 °F -0.4 °F 42% 30.05 in 10.0 mi West 20.7 mph 27.6 mph N/A   Clear
6:15 PM 19.4 °F 4.1 °F 1.4 °F 46% 30.06 in 10.0 mi West 18.4 mph 27.6 mph N/A   Clear
6:35 PM 19.4 °F 2.5 °F 1.4 °F 46% 30.07 in 10.0 mi West 23.0 mph 27.6 mph N/A   Clear
6:55 PM 19.4 °F 3.6 °F 1.4 °F 46% 30.07 in 10.0 mi West 19.6 mph 26.5 mph 0.02 in   Clear
7:15 PM 19.4 °F 3.6 °F -0.4 °F 42% 30.08 in 10.0 mi West 19.6 mph 28.8 mph N/A   Clear
7:35 PM 19.4 °F 3.6 °F 1.4 °F 46% 30.08 in 10.0 mi West 19.6 mph 28.8 mph N/A   Clear
7:55 PM 17.6 °F 0.1 °F 3.2 °F 53% 30.09 in 10.0 mi West 23.0 mph 32.2 mph N/A   Clear
8:15 PM 17.6 °F 0.9 °F 3.2 °F 53% 30.10 in 10.0 mi WNW 20.7 mph 28.8 mph N/A   Clear
8:35 PM 17.6 °F 0.1 °F 1.4 °F 49% 30.11 in 10.0 mi West 23.0 mph 32.2 mph N/A   Clear
8:55 PM 17.6 °F 0.5 °F 3.2 °F 53% 30.11 in 10.0 mi WNW 21.9 mph 31.1 mph N/A   Clear
9:15 PM 17.6 °F -1.0 °F 1.4 °F 49% 30.11 in 10.0 mi WNW 26.5 mph 38.0 mph 0.01 in   Partly Cloudy
9:35 PM 17.6 °F 0.5 °F 3.2 °F 53% 30.12 in 10.0 mi WNW 21.9 mph 31.1 mph 0.01 in   Partly Cloudy
9:55 PM 17.6 °F 1.3 °F 1.4 °F 49% 30.13 in 10.0 mi WNW 19.6 mph 31.1 mph 0.01 in   Partly Cloudy
10:15 PM 17.6 °F 0.9 °F 3.2 °F 53% 30.13 in 10.0 mi WNW 20.7 mph 32.2 mph N/A   Scattered Clouds
10:35 PM 15.8 °F -0.6 °F 5.0 °F 62% 30.13 in 10.0 mi West 18.4 mph 26.5 mph 0.01 in   Mostly Cloudy
10:55 PM 15.8 °F -0.6 °F 3.2 °F 58% 30.13 in 10.0 mi West 18.4 mph 27.6 mph 0.01 in   Overcast
11:15 PM 15.8 °F -0.6 °F 3.2 °F 58% 30.14 in 10.0 mi West 18.4 mph 27.6 mph 0.02 in   Overcast
11:35 PM 15.8 °F -0.2 °F 3.2 °F 58% 30.14 in 10.0 mi West 17.3 mph 24.2 mph 0.02 in   Mostly Cloudy
11:55 PM 15.8 °F -0.6 °F 3.2 °F 58% 30.14 in 10.0 mi West 18.4 mph 26.5 mph 0.03 in   Mostly Cloudy